Location: Unspecified
(0.0000°N, 0.0000°E)
Time: 22:11:13
(UTC+00:00)

deb DAPP - Visible Passes

Search period start: 29 April 2025 00:00
Search period end: 09 May 2025 00:00
Orbit: 607 x 948 km, 99.0° (Epoch: 26 April)

Date Brightness Start Highest point End Pass type
(mag) Time Alt. Az. Time Alt. Az. Time Alt. Az.
29 Apr ? 19:02:45 10° SSW 19:07:28 26° WSW 19:12:22 10° NW visible
30 Apr ? 18:28:49 10° S 18:34:32 61° WSW 18:40:28 10° NNW visible
01 May ? 05:26:12 10° ENE 05:29:04 17° ESE 05:31:52 10° SE visible
01 May ? 19:39:07 10° WSW 19:40:30 11° WSW 19:41:53 10° W visible
02 May ? 19:02:44 10° SSW 19:07:35 27° WSW 19:12:32 10° NW visible
03 May ? 18:28:50 10° S 18:34:40 62° WSW 18:40:36 10° NNW visible
04 May ? 05:26:14 10° ENE 05:28:58 17° ESE 05:31:41 10° SE visible
04 May ? 19:38:53 10° WSW 19:40:34 11° WSW 19:42:16 10° W visible
05 May ? 19:02:45 10° SSW 19:07:40 28° WSW 19:12:40 10° NW visible
06 May ? 18:28:52 10° S 18:34:45 63° WSW 18:40:42 10° NNW visible
07 May ? 05:26:14 10° ENE 05:28:51 16° ESE 05:31:29 10° SE visible
07 May ? 19:38:43 10° WSW 19:40:38 12° WSW 19:42:33 10° W visible
08 May ? 19:02:44 10° SSW 19:07:45 28° WSW 19:12:46 10° NW visible
